CW9804 Weather Reports


Display with metric or nautical units.
time (UTC)temp
F
wind
direction
speed
MPH
gust
MPH
rain 1hr
in
rain 24hr
in
rain mn
in
humidity
%
barometer
mb
20260505140412 63 273 6.0 11.0 0.00 0.00 0.00 64 1013.3
20260505124911 65 302 10.0 17.0 0.00 0.00 0.00 61 1013.9
20260505123410 65 304 6.0 17.0 0.00 0.00 0.00 60 1013.9
20260505121910 65 293 7.0 22.0 0.00 0.00 0.00 59 1014.3
20260505120410 65 224 6.0 13.0 0.00 0.00 0.00 59 1014.3
20260505114910 65 263 11.0 16.0 0.00 0.30 0.00 59 1014.4
20260505113410 64 273 2.0 12.0 0.00 0.00 0.00 61 1014.5
20260505111910 64 222 7.0 10.0 0.00 0.00 0.00 59 1014.5
20260505110410 65 272 11.0 16.0 0.00 0.00 0.00 59 1014.5
20260505101910 66 270 11.0 17.0 0.00 0.00 0.00 55 1014.2
20260505100409 66 275 9.0 17.0 0.00 0.00 0.00 53 1013.9
20260505094913 67 242 14.0 19.0 0.00 0.00 0.00 52 1013.8
20260505093412 68 273 12.0 26.0 0.00 0.00 0.00 50 1013.8
20260505090412 66 225 14.0 19.0 0.00 0.00 0.00 55 1013.5
20260505084912 67 235 9.0 21.0 0.00 0.00 0.00 56 1013.6
20260505083412 67 256 9.0 15.0 0.00 0.00 0.00 57 1013.6
20260505081912 66 246 6.0 13.0 0.00 0.00 0.00 58 1013.6
20260505080411 65 254 6.0 11.0 0.00 0.00 0.00 59 1013.7
20260505074911 65 252 7.0 17.0 0.00 0.00 0.00 60 1013.7
20260505073411 64 242 7.0 15.0 0.00 0.00 0.00 58 1013.7
20260505071911 64 270 5.0 12.0 0.00 0.00 0.00 60 1013.8
20260505070411 63 211 8.0 14.0 0.00 0.00 0.00 59 1013.7
20260505064911 63 276 6.0 14.0 0.00 0.00 0.00 59 1013.6
20260505063411 62 182 5.0 19.0 0.00 0.00 0.00 59 1013.6
20260505061910 62 317 6.0 11.0 0.00 0.00 0.00 59 1013.6
20260505060410 62 248 9.0 14.0 0.00 0.00 0.00 57 1013.7
20260505054910 62 306 4.0 10.0 0.00 0.00 0.00 57 1013.8
20260505053410 61 295 2.0 7.0 0.00 0.00 0.00 57 1013.6
20260505051910 61 279 3.0 12.0 0.00 0.00 0.00 57 1013.6
20260505033414 61 290 6.0 12.0 0.00 0.00 0.00 56 1013.4
20260505030414 61 264 4.0 8.0 0.00 0.00 0.00 55 1013.7
20260504224912 63 263 11.0 18.0 0.00 0.00 0.00 52 1015.5
20260504223412 64 307 14.0 27.0 0.00 0.00 0.00 51 1015.8
20260504221911 64 261 6.0 25.0 0.00 0.00 0.00 51 1015.6
20260504220411 64 258 2.0 13.0 0.00 0.00 0.00 52 1015.7
20260504214911 64 177 3.0 5.0 0.00 0.00 0.00 51 1016.1
20260504213411 65 269 3.0 14.0 0.00 0.00 0.00 51 1016.0
20260504211911 65 256 8.0 18.0 0.00 0.00 0.00 50 1016.0
20260504210411 65 236 3.0 16.0 0.00 0.00 0.00 51 1016.2
20260504204912 65 296 11.0 16.0 0.00 0.00 0.00 50 1016.0
20260504203412 65 297 9.0 13.0 0.00 0.00 0.00 51 1016.1
20260504201912 65 283 5.0 10.0 0.00 0.00 0.00 49 1016.1
20260504200411 66 310 11.0 16.0 0.00 0.00 0.00 48 1016.1
20260504194912 66 227 8.0 15.0 0.00 0.00 0.00 48 1016.0
20260504193411 67 302 10.0 16.0 0.00 0.00 0.00 46 1015.9
20260504191911 67 287 9.0 14.0 0.00 0.00 0.00 45 1015.7
20260504190411 68 259 12.0 18.0 0.00 0.00 0.00 42 1015.7
20260504184911 68 320 12.0 23.0 0.00 0.00 0.00 42 1015.4
20260504180411 69 267 8.0 14.0 0.00 0.00 0.00 45 1015.2
20260504174911 69 257 9.0 17.0 0.00 0.00 0.00 44 1015.1
20260504173411 70 252 5.0 10.0 0.00 0.00 0.00 43 1015.1
20260504171911 70 251 5.0 8.0 0.00 0.28 0.00 40 1015.1
20260504170411 71 224 8.0 13.0 0.00 0.00 0.00 39 1015.0
20260504160412 75 218 5.0 12.0 0.00 0.00 0.00 38 1015.1
20260504150411 76 231 6.0 11.0 0.00 0.00 0.00 36 1015.3